Find Starlink 4364

NORAD ID: 53230 Int'l Des: 2022-084 Owner: SPXS Country: US Constellation: starlink operational
LEOCIRCULARRETROGRADESSO

当前视图

正在加载3D地球...

关于 Starlink 4364

正在加载描述...

即将过境

Passes for default location (London). Set your location on the main map for personalized predictions.

高度历史

Loading altitude history...

两行轨道根数

1 53230U 22084AT 26151.07365522 -.00000887 00000-0 -57447-4 0 9990
2 53230 97.4245 211.9593 0001330 107.3397 252.7976 15.05659056211782
Epoch: May 31, 2026 • Age: 14 hours

当前状态

高度 551.9 km
速度 7.59 km/s
星下点 9.79°N, 79.59°E
发射日期 Jul 22, 2022
运行时间 3.8 years
类型 internet

技术详情

分类 Payload
质量 297.00 kg
干质量 275.00 kg
总质量 297.00 kg
长度 0.20 m
直径 2.80 m
跨度 9.00 m
形状 Box + pan
制造商 SPXS
平台类型 Starlink
阶段状态 In Orbit
所有者/国家 SPXS/US

Most Searched